Simultaneous Nadir Overpasses (SNOs) Predictions

Prediction of SNOs between AQUA and GOES-15 Satellite Orbit:

Table of predicted SNOs for the next 14.0 days since TLE Epoch: 7/25/2025
Index Date Time (AQUA) AQUA Lat,Lon GOES-15 Lat,Lon Distance(km) Time Diff (sec)
1 07/26/2025 22:38:04 -0.67, 62.31 -0.46, 61.40 103.81 80
2 07/27/2025 10:57:19 -0.34, 57.66 0.46, 61.36 421.14 80
3 07/29/2025 10:36:54 0.75, 62.66 0.46, 61.37 146.08 80
4 07/29/2025 22:56:02 0.24, 58.03 -0.47, 61.43 385.40 80
5 07/31/2025 22:35:36 -0.82, 63.04 -0.47, 61.45 181.08 80
6 08/01/2025 10:54:52 -0.18, 58.38 0.47, 61.41 344.49 80
7 08/03/2025 10:34:26 0.91, 63.39 0.48, 61.44 221.77 80
8 08/03/2025 22:53:33 0.12, 58.77 -0.48, 61.49 309.33 80
9 08/05/2025 22:33:07 -1.00, 63.77 -0.49, 61.53 255.81 80
10 08/06/2025 10:52:22 -0.03, 59.12 0.49, 61.50 270.60 80
11 08/08/2025 10:31:55 1.06, 64.13 0.50, 61.54 294.68 80
